Regional Weather Roundup
Issued by NWS

Home | Current Version | Previous Version | Graphics & Text | Print | Product List | Glossary On
Versions: 1 2 3 4 5 6 7 8 9 10 11 12 13 14 15 16 17 18 19 20 21 22 23 24 25 26 27 28 29 30 31 32 33 34 35 36 37 38 39 40 41 42 43 44 45 46 47 48 49 50
000
ASUS44 KMEG 301210
RWRTN
TENNESSEE HOURLY STATE WEATHER ROUNDUP
NATIONAL WEATHER SERVICE MEMPHIS TN
700 AM CDT THU OCT 30 2014

TNZ002-004-019-021-049-052-054-088>092-301300-
WEST TENNESSEE

CITY           SKY/WX    TMP DP  RH WIND       PRES   REMARKS
MEMPHIS INTL   CLEAR     46  40  79 CALM      30.16R
NWS MEMPHIS      N/A     40 N/A N/A MISG        N/A
JACKSON        CLEAR     37  35  92 CALM      30.17R
DYERSBURG      CLEAR     37  27  65 CALM      30.18S
UNION CITY     CLEAR     36  34  93 CALM      30.15F
PARIS          CLEAR     32  32 100 CALM      30.16S
HUNTINGDON     CLEAR     35  34  96 CALM      30.16S
SAVANNAH       CLEAR     34  34 100 CALM      30.16R
$$

TNZ008-025-027-028-033-062-065-066-301300-
NORTH MIDDLE TENNESSEE

CITY           SKY/WX    TMP DP  RH WIND       PRES   REMARKS
NASHVILLE      CLEAR     40  38  93 CALM      30.17R
DICKSON        CLEAR     36  36 100 CALM      30.15R
PORTLAND       CLEAR     34  32  93 CALM      30.15R
CLARKSVILLE    CLEAR     35  34  96 CALM      30.17R
LEBANON        CLEAR     35  34  96 CALM      30.13S
SMYRNA         CLEAR     37  35  92 CALM      30.17R
MURFREESBORO   CLEAR     38  37  96 CALM      30.15R
COOKEVILLE     CLEAR     32  32 100 CALM      30.13S
GALLATIN       CLEAR     38  37  96 CALM      30.16R
CROSSVILLE     CLEAR     37  33  85 CALM      30.12R
ROCKWOOD       PTSUNNY   37  34  89 NW3       30.09S
$$

TNZ061-075-076-078-094-096-097-301300-
SOUTH MIDDLE TENNESSEE

CITY           SKY/WX    TMP DP  RH WIND       PRES   REMARKS
FAYETTEVILLE   CLEAR     37  34  87 N22G54    30.13R WCI  27
TULLAHOMA      CLEAR     34  30  86 CALM      30.13S
WINCHESTER     CLEAR     36  34  93 CALM      30.14R
MCMINNVILLE    CLEAR     34  34 100 CALM      30.13R
COLUMBIA       CLOUDY   N/A N/A N/A CALM      30.14R VSB 1/4
SHELBYVILLE    CLEAR     36  36 100 CALM      30.15S
$$

TNZ017-018-042-046-047-301300-
NORTHEAST TENNESSEE

CITY           SKY/WX    TMP DP  RH WIND       PRES   REMARKS
TRI CITIES     FOG       41  40  96 CALM      30.11R VSB 1/16
ELIZABETHTON   MOSUNNY   32  32 100 CALM      30.10S
$$

TNZ012-013-036-069-073-074-301300-
CENTRAL EAST TENNESSEE

CITY           SKY/WX    TMP DP  RH WIND       PRES   REMARKS
KNOXVILLE      CLEAR     39  37  92 CALM      30.11R
OAK RIDGE      FOG       40  40 100 CALM      30.13S VSB 1/2
GATLINBURG     SUNNY     34  34 100 CALM      30.11S
MORRISTOWN       N/A     37  37 100 CALM      30.11R VSB 1
$$

TNZ083-085-099-301300-
SOUTHEAST TENNESSEE

CITY           SKY/WX    TMP DP  RH WIND       PRES   REMARKS
CHATTANOOGA    CLEAR     41  38  89 CALM      30.12S
$$

SKY/WX REPORTED AS FAIR MEANS FEW OR NO CLOUDS BELOW
12 THOUSAND FEET.




USA.gov is the U.S. government's official web portal to all federal, state and local government web resources and services.